Location: Cheching
(60.0667°N, 164.2167°W)
Time: 13:34:09
(UTC+00:00)

STRAND 1 - Pass Details

Date: 26 January 2021
Orbit: 768 x 780 km, 98.4° (Epoch: 04 March)

Event Time Altitude Azimuth Distance (km) Brightness Sun altitude
Rises 08:06:49 0° 17° (NNE) 3,275 ? -37.4°
Enters shadow 08:07:00 - 16° (NNE) 3,203 ? -37.4°
Exits shadow 08:20:48 - 234° (SW) 3,181 ? -38.8°
Sets 08:20:55 0° 233° (SW) 3,224 ? -38.9°
